• In Moldova, Republic
  • List of Countries
  • For 7 days
  • Water Temperature
  • Satellite Maps
  • Weather Map
  • Weather Widgets
  • user-avatar
    Login

    Hourly Weather Wiktoria

    Today, 24 March, Friday

    Time Temperature Precipitation Wind Pressure Humidity
    00:00 +19°C° 0 mm 1 mps 752 mmHg 78%
    01:00 +18°C° 0 mm 1 mps 752 mmHg 80%
    02:00 +18°C° 0 mm 1 mps 752 mmHg 82%
    03:00 +16°C° 0 mm 1 mps 752 mmHg 84%
    04:00 +15°C° 0 mm 1 mps 751 mmHg 88%
    05:00 +15°C° 0 mm 1 mps 752 mmHg 87%
    06:00 +15°C° 0 mm 1 mps 752 mmHg 86%
    07:00 +15°C° 0 mm 1 mps 752 mmHg 85%
    08:00 +19°C° 0 mm 1 mps 752 mmHg 73%
    09:00 +22°C° 0 mm 1 mps 752 mmHg 62%
    10:00 +25°C° 0 mm 1 mps 752 mmHg 49%
    11:00 +26°C° 0 mm 1 mps 752 mmHg 45%
    12:00 +28°C° 0 mm 1 mps 751 mmHg 41%
    13:00 +29°C° 0 mm 1 mps 750 mmHg 37%
    14:00 +30°C° 0 mm 1 mps 750 mmHg 36%
    15:00 +30°C° 0 mm 1 mps 749 mmHg 34%
    16:00 +29°C° 0 mm 1 mps 749 mmHg 38%
    17:00 +27°C° 0 mm 1 mps 749 mmHg 45%
    18:00 +24°C° 0 mm 1 mps 749 mmHg 52%
    19:00 +22°C° 0 mm 1 mps 749 mmHg 59%
    20:00 +22°C° 0 mm 1 mps 749 mmHg 60%
    21:00 +21°C° 0 mm 1 mps 749 mmHg 61%
    22:00 +21°C° 0 mm 1 mps 749 mmHg 62%
    23:00 +21°C° 0 mm 1 mps 749 mmHg 63%

    Tomorrow, 25 March, Saturday

    Time Temperature Precipitation Wind Pressure Humidity
    00:00 +21°C° 0 mm 1 mps 749 mmHg 63%
    01:00 +21°C° 0 mm 1 mps 749 mmHg 64%
    02:00 +21°C° 0 mm 1 mps 749 mmHg 66%
    03:00 +21°C° 0 mm 1 mps 749 mmHg 67%
    04:00 +21°C° 0 mm 1 mps 749 mmHg 69%
    05:00 +21°C° 0.8 mm 1 mps 749 mmHg 75%
    06:00 +20°C° 0.8 mm 1 mps 749 mmHg 82%
    07:00 +20°C° 0.8 mm 1 mps 749 mmHg 88%
    08:00 +20°C° 0.5 mm 1 mps 749 mmHg 88%
    09:00 +19°C° 0.5 mm 2 mps 749 mmHg 87%
    10:00 +20°C° 0.5 mm 2 mps 749 mmHg 87%
    11:00 +22°C° 0.1 mm 1 mps 749 mmHg 83%
    12:00 +23°C° 0.1 mm 1 mps 748 mmHg 80%
    13:00 +24°C° 0.1 mm 1 mps 748 mmHg 76%
    14:00 +25°C° 0 mm 1 mps 748 mmHg 71%
    15:00 +26°C° 0 mm 1 mps 747 mmHg 66%
    16:00 +27°C° 0 mm 1 mps 747 mmHg 62%
    17:00 +25°C° 0.1 mm 1 mps 747 mmHg 69%
    18:00 +24°C° 0.1 mm 1 mps 747 mmHg 77%
    19:00 +22°C° 0.1 mm 1 mps 747 mmHg 85%
    20:00 +21°C° 0 mm 1 mps 748 mmHg 88%
    21:00 +21°C° 0 mm 1 mps 748 mmHg 90%
    22:00 +20°C° 0 mm 1 mps 749 mmHg 93%
    23:00 +20°C° 0 mm 1 mps 749 mmHg 94%

    Day after tomorrow, 26 March, Sunday

    Time Temperature Precipitation Wind Pressure Humidity
    00:00 +19°C° 0 mm 1 mps 749 mmHg 95%
    01:00 +19°C° 0 mm 1 mps 748 mmHg 96%
    02:00 +19°C° 0 mm 1 mps 748 mmHg 96%
    03:00 +18°C° 0 mm 1 mps 748 mmHg 97%
    04:00 +18°C° 0 mm 1 mps 748 mmHg 98%
    05:00 +18°C° 0 mm 1 mps 749 mmHg 97%
    06:00 +18°C° 0 mm 1 mps 749 mmHg 96%
    07:00 +18°C° 0 mm 1 mps 749 mmHg 96%
    08:00 +21°C° 0 mm 1 mps 750 mmHg 84%
    09:00 +24°C° 0 mm 1 mps 750 mmHg 71%
    10:00 +25°C° 0 mm 0 mps 750 mmHg 59%
    11:00 +26°C° 0 mm 0 mps 750 mmHg 52%
    12:00 +28°C° 0 mm 0 mps 749 mmHg 44%
    13:00 +30°C° 0 mm 0 mps 748 mmHg 36%
    14:00 +30°C° 0 mm 0 mps 748 mmHg 35%
    15:00 +30°C° 0 mm 0 mps 747 mmHg 33%
    16:00 +30°C° 0 mm 0 mps 747 mmHg 32%
    17:00 +27°C° 0 mm 0 mps 747 mmHg 40%
    18:00 +26°C° 0 mm 1 mps 747 mmHg 49%
    19:00 +23°C° 0 mm 1 mps 747 mmHg 57%
    20:00 +23°C° 0 mm 1 mps 748 mmHg 58%
    21:00 +23°C° 0 mm 1 mps 748 mmHg 58%
    22:00 +23°C° 0 mm 1 mps 748 mmHg 58%
    23:00 +23°C° 0 mm 1 mps 748 mmHg 59%

    27 March, Monday

    Time Temperature Precipitation Wind Pressure Humidity
    00:00 +22°C° 0 mm 1 mps 748 mmHg 61%
    01:00 +22°C° 0 mm 1 mps 747 mmHg 62%
    02:00 +22°C° 0 mm 1 mps 747 mmHg 62%
    03:00 +22°C° 0 mm 1 mps 747 mmHg 63%
    04:00 +22°C° 0 mm 1 mps 747 mmHg 63%
    05:00 +22°C° 0 mm 1 mps 747 mmHg 63%
    06:00 +21°C° 0 mm 2 mps 746 mmHg 64%
    07:00 +21°C° 0 mm 2 mps 746 mmHg 64%
    08:00 +24°C° 0 mm 2 mps 746 mmHg 60%
    09:00 +26°C° 0 mm 2 mps 746 mmHg 56%
    10:00 +28°C° 0 mm 3 mps 746 mmHg 51%
    11:00 +31°C° 0 mm 3 mps 745 mmHg 44%
    12:00 +34°C° 0 mm 3 mps 745 mmHg 37%
    13:00 +37°C° 0 mm 3 mps 744 mmHg 29%
    14:00 +36°C° 0.2 mm 3 mps 744 mmHg 33%
    15:00 +34°C° 0.2 mm 3 mps 744 mmHg 37%
    16:00 +33°C° 0.2 mm 3 mps 744 mmHg 41%
    17:00 +30°C° 0.1 mm 3 mps 745 mmHg 47%
    18:00 +27°C° 0.1 mm 2 mps 746 mmHg 52%
    19:00 +25°C° 0.1 mm 2 mps 746 mmHg 57%
    20:00 +24°C° 0 mm 2 mps 747 mmHg 60%
    21:00 +23°C° 0 mm 2 mps 748 mmHg 63%
    22:00 +20°C° 0 mm 2 mps 748 mmHg 66%
    23:00 +19°C° 0 mm 2 mps 748 mmHg 68%

    28 March, Tuesday

    Time Temperature Precipitation Wind Pressure Humidity
    00:00 +18°C° 0 mm 2 mps 748 mmHg 69%
    01:00 +18°C° 0 mm 1 mps 748 mmHg 71%
    02:00 +16°C° 0 mm 1 mps 748 mmHg 73%
    03:00 +15°C° 0 mm 1 mps 748 mmHg 76%
    04:00 +15°C° 0 mm 1 mps 748 mmHg 78%
    05:00 +14°C° 0 mm 1 mps 749 mmHg 79%
    06:00 +14°C° 0 mm 1 mps 749 mmHg 80%
    07:00 +14°C° 0 mm 1 mps 750 mmHg 82%
    08:00 +16°C° 0 mm 1 mps 750 mmHg 70%
    09:00 +19°C° 0 mm 1 mps 750 mmHg 59%
    10:00 +21°C° 0 mm 1 mps 750 mmHg 48%
    11:00 +23°C° 0 mm 1 mps 750 mmHg 42%
    12:00 +25°C° 0 mm 1 mps 749 mmHg 35%
    13:00 +27°C° 0 mm 1 mps 749 mmHg 29%
    14:00 +27°C° 0 mm 1 mps 749 mmHg 28%
    15:00 +27°C° 0 mm 1 mps 748 mmHg 27%
    16:00 +28°C° 0 mm 1 mps 748 mmHg 26%
    17:00 +24°C° 0 mm 1 mps 748 mmHg 35%
    18:00 +19°C° 0 mm 0 mps 748 mmHg 44%
    19:00 +16°C° 0 mm 0 mps 748 mmHg 53%
    20:00 +15°C° 0 mm 0 mps 748 mmHg 55%
    21:00 +14°C° 0 mm 0 mps 748 mmHg 58%
    22:00 +14°C° 0 mm 0 mps 749 mmHg 60%
    23:00 +13°C° 0 mm 0 mps 748 mmHg 62%

    29 March, Wednesday

    Time Temperature Precipitation Wind Pressure Humidity
    00:00 +13°C° 0 mm 0 mps 748 mmHg 65%
    01:00 +12°C° 0 mm 0 mps 748 mmHg 68%
    02:00 +12°C° 0 mm 0 mps 747 mmHg 68%
    03:00 +11°C° 0 mm 0 mps 747 mmHg 69%
    04:00 +11°C° 0 mm 0 mps 747 mmHg 70%
    05:00 +13°C° 0 mm 1 mps 747 mmHg 67%
    06:00 +14°C° 0 mm 1 mps 748 mmHg 63%
    07:00 +14°C° 0 mm 1 mps 748 mmHg 59%
    08:00 +19°C° 0 mm 1 mps 748 mmHg 50%
    09:00 +22°C° 0 mm 1 mps 747 mmHg 41%
    10:00 +25°C° 0 mm 1 mps 747 mmHg 32%
    11:00 +27°C° 0 mm 2 mps 746 mmHg 28%
    12:00 +28°C° 0 mm 2 mps 745 mmHg 24%
    13:00 +30°C° 0 mm 2 mps 745 mmHg 20%
    14:00 +30°C° 0 mm 2 mps 744 mmHg 19%
    15:00 +31°C° 0 mm 2 mps 743 mmHg 18%
    16:00 +31°C° 0 mm 2 mps 742 mmHg 17%
    17:00 +28°C° 0 mm 2 mps 742 mmHg 22%
    18:00 +25°C° 0 mm 1 mps 742 mmHg 27%
    19:00 +22°C° 0 mm 1 mps 743 mmHg 32%
    20:00 +22°C° 0 mm 1 mps 743 mmHg 32%
    21:00 +22°C° 0 mm 1 mps 743 mmHg 33%
    22:00 +22°C° 0 mm 1 mps 743 mmHg 33%
    23:00 +21°C° 0 mm 1 mps 743 mmHg 40%
    Show more